sat.trackr.live / text

‹ back to catalog

IONOSFERA-M 4

NORAD 64877 · 2025-155B

PAYLOAD ACTIVE UNKNOWN

§ Identity

Operator
Country
CIS
Launch date
2025-07-25
Launch site
VOSTO
Launch vehicle
Mass (kg)
RCS (m²)

Purposes: earth_obs

External: N2YO · Heavens-Above · Gunter

§ Orbital elements

Epoch: 2026-05-25T02:56:47.188896Z

Period
101.30 min
Inclination
98.6012°
Eccentricity
0.0000536
Mean motion
14.21483987 rev/d
Perigee alt
820.0 km
Apogee alt
820.7 km
Semi-major
7,198.5 km
B*
4.0285e-5
RAAN
107.5281°
Arg perigee
75.2101°
Mean anomaly
284.9136°
Rev number
4,312

§ Raw data

IONOSFERA-M 41 64877U 25155B   26145.12276839  .00000045  00000+0  40285-4 0  99972 64877  98.6012 107.5281 0000536  75.2101 284.9136 14.21483987 43124

JSON: /api/v1/satellites/64877 · /tle

For live sub-satellite position, see the globe view (requires WebGL).

§ Visibility from observer

Set your observer location to see the next 7 days of passes ≥ 10°. The values pass through the URL so the page stays shareable.

No JS? Fill the form by hand. The geolocation button needs JavaScript.

§ Radio — SatNOGS DB

ModeDescriptionDownlinkUplink
FM Telemetry 399.919 MHz

1 transmitter · refreshed weekly from db.satnogs.org